User: anonymous   Login
Location: Newark
(47.0000°N, 7.6833°E)
Time: 16:12:02
(UTC+00:00)
Language:

XW-2B - Orbit

View from above orbital plane
View from above orbital plane
View from above satellite
View from above satellite

Ground track
Ground track

The orbit data is extracted from the following two-line orbital elements,

1 40911U 15049N   19292.39774094  .00000778  00000-0  43996-4 0  9997
2 40911  97.4716 292.8276 0015208 126.9198 342.8445 15.15913049225499
Epoch (UTC): 19 October 2019 09:32:44
Eccentricity: 0.0015208
inclination: 97.4716°
perigee height: 508 km
apogee height: 529 km
right ascension of ascending node: 292.8276°
argument of perigee: 126.9198°
revolutions per day: 15.15913049
mean anomaly at epoch: 342.8445°
orbit number at epoch: 22549

The dashed part of the orbit path shows where the satellite is in the earth's shadow,  

DLR